SB KEPS @ AMSAT $ORB13066.O Orbital Elements 13066.OSCAR
HR AMSAT ORBITAL ELEMENTS FOR OSCAR SATELLITES FROM WA5QGD FORT WORTH,TX March 7, 2013 BID: ORB13066.O TO ALL RADIO AMATEURS BT
Satellite: AO-07 Catalog number: 07530 Epoch time: 13066.91699870 Element set: 625 Inclination: 101.4252 deg RA of node: 060.1258 deg Eccentricity: 0.0012291 Arg of perigee: 125.2970 deg Mean anomaly: 302.2736 deg Mean motion: 12.53595210 rev/day Decay rate: -5.4e-07 rev/day^2 Epoch rev: 75309 Checksum: 279
Satellite: FO-29 Catalog number: 24278 Epoch time: 13065.80257177 Element set: 65 Inclination: 098.5674 deg RA of node: 138.0075 deg Eccentricity: 0.0351397 Arg of perigee: 069.5141 deg Mean anomaly: 038.2989 deg Mean motion: 13.52996593 rev/day Decay rate: 2.9e-07 rev/day^2 Epoch rev: 81746 Checksum: 353
Satellite: SO-33 Catalog number: 25509 Epoch time: 13066.89796112 Element set: 448 Inclination: 031.4315 deg RA of node: 281.0668 deg Eccentricity: 0.0351480 Arg of perigee: 351.2053 deg Mean anomaly: 125.7582 deg Mean motion: 14.28969065 rev/day Decay rate: 2.84e-06 rev/day^2 Epoch rev: 75039 Checksum: 318
Satellite: RS-22 Catalog number: 27939 Epoch time: 13066.57819973 Element set: 221 Inclination: 097.7994 deg RA of node: 259.7302 deg Eccentricity: 0.0013561 Arg of perigee: 145.5218 deg Mean anomaly: 214.6877 deg Mean motion: 14.64338441 rev/day Decay rate: 4.30e-06 rev/day^2 Epoch rev: 50442 Checksum: 324
Satellite: VO-52 Catalog number: 28650 Epoch time: 13066.83838321 Element set: 362 Inclination: 097.5755 deg RA of node: 090.6284 deg Eccentricity: 0.0024773 Arg of perigee: 252.4282 deg Mean anomaly: 210.5647 deg Mean motion: 14.83607548 rev/day Decay rate: 1.272e-05 rev/day^2 Epoch rev: 42405 Checksum: 313
Satellite: HO-68 Catalog number: 36122 Epoch time: 13066.73253098 Element set: 346 Inclination: 100.3205 deg RA of node: 126.2999 deg Eccentricity: 0.0007311 Arg of perigee: 224.6247 deg Mean anomaly: 135.4281 deg Mean motion: 13.16302435 rev/day Decay rate: -4.4e-07 rev/day^2 Epoch rev: 15506 Checksum: 271
/EX SB KEPS @ AMSAT $ORB13066.D Orbital Elements 13066.MICROS
HR AMSAT ORBITAL ELEMENTS FOR THE MICROSATS FROM WA5QGD FORT WORTH,TX March 7, 2013 BID: ORB13066.D TO ALL RADIO AMATEURS BT
Satellite: UO-11 Catalog number: 14781 Epoch time: 13066.75208534 Element set: 119 Inclination: 097.9146 deg RA of node: 129.4626 deg Eccentricity: 0.0007712 Arg of perigee: 253.1699 deg Mean anomaly: 106.8668 deg Mean motion: 14.80770656 rev/day Decay rate: 6.10e-06 rev/day^2 Epoch rev: 55892 Checksum: 327
Satellite: AO-16 Catalog number: 20439 Epoch time: 13064.55474382 Element set: 690 Inclination: 098.4628 deg RA of node: 007.0372 deg Eccentricity: 0.0012146 Arg of perigee: 105.1621 deg Mean anomaly: 011.9563 deg Mean motion: 14.32143191 rev/day Decay rate: 8.6e-07 rev/day^2 Epoch rev: 20740 Checksum: 270
Satellite: LO-19 Catalog number: 20442 Epoch time: 13064.53761006 Element set: 622 Inclination: 098.4312 deg RA of node: 009.1409 deg Eccentricity: 0.0013101 Arg of perigee: 096.9202 deg Mean anomaly: 015.3038 deg Mean motion: 14.32356374 rev/day Decay rate: 6.1e-07 rev/day^2 Epoch rev: 20759 Checksum: 257
Satellite: AO-27 Catalog number: 22825 Epoch time: 13063.84718538 Element set: 327 Inclination: 098.6088 deg RA of node: 009.0319 deg Eccentricity: 0.0007662 Arg of perigee: 228.6189 deg Mean anomaly: 193.2272 deg Mean motion: 14.29537186 rev/day Decay rate: 3.5e-07 rev/day^2 Epoch rev: 1372 Checksum: 319
Satellite: IO-26 Catalog number: 22826 Epoch time: 13066.87961481 Element set: 87 Inclination: 098.6037 deg RA of node: 012.3362 deg Eccentricity: 0.0008455 Arg of perigee: 212.5939 deg Mean anomaly: 224.7665 deg Mean motion: 14.29819123 rev/day Decay rate: 1.13e-06 rev/day^2 Epoch rev: 1428 Checksum: 308
Satellite: GO-32 Catalog number: 25397 Epoch time: 13065.83638431 Element set: 15 Inclination: 098.4030 deg RA of node: 038.1130 deg Eccentricity: 0.0000951 Arg of perigee: 170.1585 deg Mean anomaly: 249.1403 deg Mean motion: 14.23324821 rev/day Decay rate: 2.4e-07 rev/day^2 Epoch rev: 76138 Checksum: 265
Satellite: NO-44 Catalog number: 26931 Epoch time: 13066.77435984 Element set: 275 Inclination: 067.0522 deg RA of node: 160.9320 deg Eccentricity: 0.0005965 Arg of perigee: 285.8805 deg Mean anomaly: 218.7530 deg Mean motion: 14.29892934 rev/day Decay rate: 8.8e-07 rev/day^2 Epoch rev: 59692 Checksum: 345
Satellite: SO-50 Catalog number: 27607 Epoch time: 13066.89582149 Element set: 10 Inclination: 064.5569 deg RA of node: 212.4675 deg Eccentricity: 0.0057994 Arg of perigee: 192.8117 deg Mean anomaly: 310.7420 deg Mean motion: 14.72788821 rev/day Decay rate: 9.33e-06 rev/day^2 Epoch rev: 54879 Checksum: 338
Satellite: CO-55 Catalog number: 27844 Epoch time: 13065.90996499 Element set: 595 Inclination: 098.7031 deg RA of node: 076.4663 deg Eccentricity: 0.0010009 Arg of perigee: 178.2696 deg Mean anomaly: 258.8000 deg Mean motion: 14.21167357 rev/day Decay rate: 2.06e-06 rev/day^2 Epoch rev: 50220 Checksum: 320
Satellite: CO-57 Catalog number: 27848 Epoch time: 13066.60367807 Element set: 542 Inclination: 098.7117 deg RA of node: 076.6097 deg Eccentricity: 0.0009888 Arg of perigee: 181.7578 deg Mean anomaly: 299.4840 deg Mean motion: 14.20899913 rev/day Decay rate: 1.57e-06 rev/day^2 Epoch rev: 50223 Checksum: 360
Satellite: AO-51 Catalog number: 28375 Epoch time: 13065.90207887 Element set: 501 Inclination: 098.1899 deg RA of node: 025.5355 deg Eccentricity: 0.0082572 Arg of perigee: 326.2477 deg Mean anomaly: 066.5224 deg Mean motion: 14.41075778 rev/day Decay rate: 1.89e-06 rev/day^2 Epoch rev: 45660 Checksum: 335
Satellite: CP3 Catalog number: 31129 Epoch time: 13065.89688190 Element set: 407 Inclination: 097.8938 deg RA of node: 064.3493 deg Eccentricity: 0.0100807 Arg of perigee: 026.6656 deg Mean anomaly: 035.0384 deg Mean motion: 14.53485571 rev/day Decay rate: 1.029e-05 rev/day^2 Epoch rev: 31213 Checksum: 310
Satellite: CO-65 Catalog number: 32785 Epoch time: 13066.75837389 Element set: 571 Inclination: 097.7633 deg RA of node: 127.1419 deg Eccentricity: 0.0013000 Arg of perigee: 278.8719 deg Mean anomaly: 202.6647 deg Mean motion: 14.83619009 rev/day Decay rate: 1.189e-05 rev/day^2 Epoch rev: 26283 Checksum: 338
Satellite: PRISM Catalog number: 33493 Epoch time: 13066.98928986 Element set: 599 Inclination: 098.2034 deg RA of node: 220.7049 deg Eccentricity: 0.0018745 Arg of perigee: 158.9914 deg Mean anomaly: 201.2095 deg Mean motion: 14.85361644 rev/day Decay rate: 2.701e-05 rev/day^2 Epoch rev: 22289 Checksum: 334
Satellite: SOHLA-1 Catalog number: 33496 Epoch time: 13066.88015041 Element set: 987 Inclination: 098.1228 deg RA of node: 183.2418 deg Eccentricity: 0.0005255 Arg of perigee: 282.7917 deg Mean anomaly: 224.0246 deg Mean motion: 14.70200251 rev/day Decay rate: 4.33e-06 rev/day^2 Epoch rev: 22098 Checksum: 286
Satellite: SO-67 Catalog number: 35870 Epoch time: 13067.02571047 Element set: 856 Inclination: 097.2038 deg RA of node: 099.4075 deg Eccentricity: 0.0001804 Arg of perigee: 010.1982 deg Mean anomaly: 046.2929 deg Mean motion: 15.26068879 rev/day Decay rate: 4.280e-05 rev/day^2 Epoch rev: 19282 Checksum: 324
Satellite: TISAT-1 Catalog number: 36799 Epoch time: 13066.85122894 Element set: 870 Inclination: 098.0386 deg RA of node: 150.9579 deg Eccentricity: 0.0015360 Arg of perigee: 041.6183 deg Mean anomaly: 318.6188 deg Mean motion: 14.82908919 rev/day Decay rate: 1.543e-05 rev/day^2 Epoch rev: 14355 Checksum: 339
Satellite: STUDSAT Catalog number: 36801 Epoch time: 13065.76579696 Element set: 596 Inclination: 098.0475 deg RA of node: 152.1463 deg Eccentricity: 0.0011960 Arg of perigee: 028.9105 deg Mean anomaly: 117.0917 deg Mean motion: 14.87068668 rev/day Decay rate: 5.194e-05 rev/day^2 Epoch rev: 14350 Checksum: 325
Satellite: FO-69 Catalog number: 37227 Epoch time: 13058.47095845 Element set: 0079 Inclination: 071.9702 deg RA of node: 108.5053 deg Eccentricity: 0.0016475 Arg of perigee: 214.8087 deg Mean anomaly: 145.2122 deg Mean motion: 14.77380366 rev/day Decay rate: 5.09e-06 rev/day^2 Epoch rev: 01270 Checksum: 308
Satellite: FO-70 Catalog number: 37380 Epoch time: 13057.30123492 Element set: 0076 Inclination: 071.9749 deg RA of node: 111.9690 deg Eccentricity: 0.0018455 Arg of perigee: 208.9506 deg Mean anomaly: 151.0634 deg Mean motion: 14.77121324 rev/day Decay rate: -4.6e-07 rev/day^2 Epoch rev: 01260 Checksum: 281
Satellite: ALMASAT-1 Catalog number: 38078 Epoch time: 13066.48642817 Element set: 65 Inclination: 069.4830 deg RA of node: 076.0770 deg Eccentricity: 0.0718997 Arg of perigee: 276.5597 deg Mean anomaly: 075.4238 deg Mean motion: 14.19729625 rev/day Decay rate: 2.1539e-04 rev/day^2 Epoch rev: 5478 Checksum: 360
Satellite: XATCOBEO Catalog number: 38082 Epoch time: 13066.45123881 Element set: 977 Inclination: 069.4819 deg RA of node: 060.9933 deg Eccentricity: 0.0633817 Arg of perigee: 268.2663 deg Mean anomaly: 084.5911 deg Mean motion: 14.41991887 rev/day Decay rate: 5.0877e-04 rev/day^2 Epoch rev: 5519 Checksum: 354
/EX SB KEPS @ AMSAT $ORB13066.W Orbital Elements 13066.WEATHER
HR AMSAT ORBITAL ELEMENTS FOR WEATHER SATELLITES FROM WA5QGD FORT WORTH,TX March 7, 2013 BID: ORB13066.W TO ALL RADIO AMATEURS BT
Satellite: NOAA-10 Catalog number: 16969 Epoch time: 13066.58336053 Element set: 268 Inclination: 098.5555 deg RA of node: 096.5885 deg Eccentricity: 0.0012678 Arg of perigee: 178.4432 deg Mean anomaly: 345.2843 deg Mean motion: 14.27618233 rev/day Decay rate: 7.7e-07 rev/day^2 Epoch rev: 37744 Checksum: 344
Satellite: NOAA-11 Catalog number: 19531 Epoch time: 13066.48864853 Element set: 270 Inclination: 098.7140 deg RA of node: 151.9058 deg Eccentricity: 0.0011448 Arg of perigee: 186.9380 deg Mean anomaly: 243.0892 deg Mean motion: 14.15003735 rev/day Decay rate: 7.0e-08 rev/day^2 Epoch rev: 26174 Checksum: 299
